Location: Cheyres
(46.8153°N, 6.7877°E)
Time: 14:06:10
(UTC+00:00)

STRAND 1 - Visible Passes

Search period start: 25 June 2022 00:00
Search period end: 05 July 2022 00:00
Orbit: 768 x 780 km, 98.4° (Epoch: 24 June)

Date Brightness Start Highest point End Pass type
(mag) Time Alt. Az. Time Alt. Az. Time Alt. Az.
27 Jun ? 20:20:57 10° NNW 20:24:09 17° WNW 20:27:21 10° W visible
30 Jun ? 20:17:28 10° NNW 20:20:49 18° WNW 20:24:09 10° W visible
02 Jul ? 20:50:36 10° NW 20:51:08 10° NW 20:51:41 10° WNW visible
03 Jul ? 20:13:59 10° NNW 20:17:28 19° WNW 20:20:57 10° WSW visible
